Plattsmouth, NE

11:05 PM CDT on June 23, 2017 (GMT -0500)
Plattsmouth Municipal

Weather History for KPMV - January, 2014

Change the Weather History Date:

Saturday, January 11, 2014

  Actual Average (KOFF) Record (KOFF)
Temperature  
Mean Temperature 36 °F -  
Max Temperature 46 °F 30 °F 55 °F (2006)
Min Temperature 25 °F 14 °F -9 °F (1997)
Degree Days  
Heating Degree Days 30    
Moisture  
Dew Point 26 °F    
Average Humidity 73    
Maximum Humidity 97    
Minimum Humidity 48    
Precipitation  
Precipitation 0.00 in - - ()
Sea Level Pressure  
Sea Level Pressure 29.74 in    
Wind  
Wind Speed 9 mph (West)    
Max Wind Speed 22 mph    
Max Gust Speed 25 mph    
Visibility 10 miles    
Events      
Averages and records for this station are not official NWS values.
T = Trace of Precipitation, MM = Missing Value Source: NWS Daily Summary

Daily Weather History Graph

Daily Weather History Graph

Search for Another Location

Airport or City:

Trip Planner

Search our weather history database for the weather conditions in past years. The results will help you decide how hot, cold, wet, or windy it might be!

Date:

Astronomy

Jan. 11, 2014 Rise Set
Actual Time 7:47 AM CST 5:16 PM CST
Civil Twilight 7:17 AM CST 5:46 PM CST
Nautical Twilight 6:43 AM CST 6:20 PM CST
Astronomical Twilight 6:10 AM CST 6:53 PM CST
Moon 2:01 PM CST (1/11) 3:52 AM CST (1/11)
Length of Visible Light 10h 29m
Length of Day
9h 28m
Waxing Gibbous, 83% of the Moon is Illuminated
Jan 11
Waxing Gibbous
Jan 15
Full
Jan 23
Last Quarter
Jan 30
New
Feb 6
First Quarter

Hourly Weather History & Observations

Time (CST) Temp. Windchill Dew Point Humidity Pressure Visibility Wind Dir Wind Speed Gust Speed Precip Events Conditions
12:15 AM 27.5 °F 19.3 °F 26.8 °F 97% 29.61 in 4.0 mi West 8.1 mph - N/A   Clear
12:35 AM 27.1 °F 18.2 °F 26.2 °F 96% 29.62 in 4.0 mi West 9.2 mph - N/A   Clear
12:55 AM 27.9 °F 20.6 °F 27.0 °F 96% 29.62 in 5.0 mi West 6.9 mph - N/A   Clear
1:15 AM 27.1 °F 19.7 °F 26.1 °F 96% 29.62 in 5.0 mi WNW 6.9 mph - N/A   Clear
1:35 AM 26.6 °F 19.1 °F 25.5 °F 96% 29.62 in 7.0 mi West 6.9 mph - N/A   Clear
1:55 AM 26.6 °F 19.1 °F 25.2 °F 94% 29.63 in 7.0 mi WNW 6.9 mph - N/A   Clear
2:15 AM 26.6 °F 19.1 °F 25.2 °F 94% 29.64 in 7.0 mi West 6.9 mph - N/A   Clear
2:35 AM 26.4 °F 18.9 °F 24.8 °F 94% 29.65 in 7.0 mi West 6.9 mph - N/A   Clear
2:55 AM 26.6 °F 18.2 °F 24.8 °F 93% 29.65 in 10.0 mi West 8.1 mph - N/A   Clear
3:15 AM 26.8 °F 21.4 °F 24.6 °F 92% 29.64 in 10.0 mi WSW 4.6 mph - N/A   Clear
3:35 AM 26.1 °F 16.8 °F 23.7 °F 91% 29.64 in 10.0 mi WSW 9.2 mph - N/A   Clear
3:55 AM 25.5 °F 16.9 °F 22.8 °F 89% 29.64 in 10.0 mi West 8.1 mph - N/A   Clear
4:15 AM 26.2 °F 19.6 °F 23.0 °F 88% 29.65 in 10.0 mi WSW 5.8 mph - N/A   Scattered Clouds
4:35 AM 26.8 °F 21.4 °F 23.4 °F 87% 29.65 in 10.0 mi WSW 4.6 mph - N/A   Overcast
4:55 AM 28.0 °F 21.7 °F 24.1 °F 85% 29.65 in 10.0 mi WSW 5.8 mph - N/A   Overcast
5:15 AM 28.8 °F - 24.6 °F 84% 29.66 in 10.0 mi Calm Calm - N/A   Overcast
5:35 AM 29.3 °F 24.3 °F 25.0 °F 84% 29.67 in 10.0 mi WNW 4.6 mph - N/A   Overcast
5:55 AM 28.9 °F 22.8 °F 24.8 °F 84% 29.68 in 10.0 mi West 5.8 mph - N/A   Mostly Cloudy
6:15 AM 28.6 °F 20.7 °F 24.6 °F 85% 29.68 in 10.0 mi West 8.1 mph - N/A   Mostly Cloudy
6:35 AM 27.5 °F 21.1 °F 23.9 °F 86% 29.69 in 10.0 mi West 5.8 mph - N/A   Scattered Clouds
6:55 AM 27.1 °F 18.2 °F 23.4 °F 86% 29.69 in 10.0 mi West 9.2 mph - N/A   Scattered Clouds
7:15 AM 28.4 °F 19.1 °F 23.9 °F 83% 29.70 in 10.0 mi WNW 10.4 mph - N/A   Clear
7:35 AM 28.8 °F 19.5 °F 24.3 °F 83% 29.70 in 10.0 mi West 10.4 mph - N/A   Clear
7:55 AM 29.1 °F 20.0 °F 24.4 °F 83% 29.71 in 10.0 mi West 10.4 mph - N/A   Clear
8:15 AM 29.5 °F 20.4 °F 25.0 °F 83% 29.72 in 10.0 mi West 10.4 mph - N/A   Clear
8:35 AM 31.3 °F 22.1 °F 26.4 °F 82% 29.73 in 10.0 mi WNW 11.5 mph 18.4 mph N/A   Clear
8:55 AM 32.0 °F 23.0 °F 27.1 °F 82% 29.74 in 10.0 mi WNW 11.5 mph - N/A   Clear
9:15 AM 32.0 °F 23.6 °F 27.7 °F 84% 29.75 in 10.0 mi WNW 10.4 mph - N/A   Clear
9:35 AM 33.3 °F 24.6 °F 28.8 °F 84% 29.76 in 10.0 mi WNW 11.5 mph - N/A   Clear
9:55 AM 34.7 °F 24.7 °F 29.8 °F 82% 29.77 in 10.0 mi WNW 16.1 mph - N/A   Clear
10:15 AM 35.6 °F 26.2 °F 30.0 °F 80% 29.77 in 10.0 mi NW 15.0 mph 24.2 mph N/A   Clear
10:35 AM 36.5 °F 27.4 °F 30.0 °F 77% 29.78 in 10.0 mi WNW 15.0 mph 21.9 mph N/A   Clear
10:55 AM 37.2 °F 27.3 °F 29.8 °F 75% 29.79 in 10.0 mi NW 18.4 mph - N/A   Clear
11:15 AM 38.3 °F 27.8 °F 29.8 °F 72% 29.79 in 10.0 mi NW 21.9 mph - N/A   Clear
11:35 AM 38.8 °F 30.0 °F 29.5 °F 69% 29.79 in 10.0 mi WNW 16.1 mph 24.2 mph N/A   Clear
11:55 AM 39.4 °F 30.1 °F 29.8 °F 69% 29.79 in 10.0 mi NW 18.4 mph 25.3 mph N/A   Clear
12:15 PM 40.3 °F 31.6 °F 30.4 °F 68% 29.78 in 10.0 mi NW 17.3 mph - N/A   Clear
12:35 PM 41.2 °F 32.7 °F 30.4 °F 65% 29.77 in 10.0 mi NW 17.3 mph - N/A   Clear
12:55 PM 41.9 °F 34.0 °F 30.6 °F 64% 29.78 in 10.0 mi NW 16.1 mph 24.2 mph N/A   Clear
1:15 PM 43.0 °F 35.1 °F 30.7 °F 62% 29.77 in 10.0 mi NW 17.3 mph 21.9 mph N/A   Clear
1:35 PM 43.5 °F 35.8 °F 30.4 °F 60% 29.78 in 10.0 mi WNW 17.3 mph 23.0 mph N/A   Clear
1:55 PM 44.6 °F 37.4 °F 30.9 °F 59% 29.79 in 10.0 mi WNW 16.1 mph 19.6 mph N/A   Clear
2:15 PM 44.8 °F 38.7 °F 30.4 °F 57% 29.79 in 10.0 mi WNW 12.7 mph 19.6 mph N/A   Clear
2:35 PM 45.3 °F 40.1 °F 29.8 °F 55% 29.79 in 10.0 mi WNW 10.4 mph - N/A   Clear
2:55 PM 45.5 °F 39.6 °F 28.8 °F 52% 29.79 in 10.0 mi WNW 12.7 mph 18.4 mph N/A   Clear
3:15 PM 45.9 °F 40.0 °F 28.9 °F 52% 29.80 in 10.0 mi West 12.7 mph 16.1 mph N/A   Clear
3:35 PM 45.9 °F 40.8 °F 27.3 °F 48% 29.80 in 10.0 mi West 10.4 mph - N/A   Clear
3:55 PM 46.0 °F 41.4 °F 27.1 °F 48% 29.81 in 10.0 mi WNW 9.2 mph - N/A   Clear
4:15 PM 45.5 °F 40.8 °F 27.1 °F 49% 29.81 in 10.0 mi West 9.2 mph - N/A   Clear
4:35 PM 44.4 °F 41.2 °F 26.4 °F 49% 29.82 in 10.0 mi West 5.8 mph - N/A   Clear
4:55 PM 43.2 °F - 25.3 °F 49% 29.81 in 10.0 mi Calm Calm - N/A   Clear
5:15 PM 43.0 °F - 24.4 °F 48% 29.82 in 10.0 mi Calm Calm - N/A   Clear
5:35 PM 40.5 °F 38.4 °F 24.1 °F 52% 29.81 in 10.0 mi WSW 3.5 mph - N/A   Clear
5:55 PM 38.8 °F 36.5 °F 23.9 °F 55% 29.81 in 10.0 mi SSW 3.5 mph - N/A   Clear
6:15 PM 37.6 °F 35.1 °F 24.4 °F 59% 29.81 in 10.0 mi South 3.5 mph - N/A   Clear
6:35 PM 38.8 °F 35.4 °F 23.7 °F 55% 29.81 in 10.0 mi South 4.6 mph - N/A   Clear
6:55 PM 36.9 °F 31.4 °F 23.9 °F 59% 29.81 in 10.0 mi South 6.9 mph - N/A   Clear
7:15 PM 35.1 °F 28.6 °F 24.8 °F 66% 29.81 in 10.0 mi South 8.1 mph - N/A   Clear
7:35 PM 36.7 °F 29.9 °F 24.6 °F 62% 29.81 in 10.0 mi SSW 9.2 mph - N/A   Clear
7:55 PM 38.3 °F 31.4 °F 24.8 °F 58% 29.81 in 10.0 mi SSW 10.4 mph - N/A   Clear
8:15 PM 38.3 °F 31.9 °F 25.5 °F 60% 29.80 in 10.0 mi South 9.2 mph - N/A   Clear
8:35 PM 37.6 °F 30.5 °F 25.7 °F 62% 29.80 in 10.0 mi SSW 10.4 mph - N/A   Clear
8:55 PM 37.8 °F 30.7 °F 26.2 °F 63% 29.79 in 10.0 mi South 10.4 mph - N/A   Clear
9:15 PM 37.8 °F 29.8 °F 26.6 °F 64% 29.79 in 10.0 mi South 12.7 mph - N/A   Clear
9:35 PM 35.2 °F 27.6 °F 26.1 °F 69% 29.79 in 10.0 mi South 10.4 mph - N/A   Clear
9:55 PM 34.9 °F 27.7 °F 26.4 °F 71% 29.78 in 10.0 mi South 9.2 mph - N/A   Clear
10:15 PM 34.7 °F 27.5 °F 26.4 °F 72% 29.78 in 10.0 mi SSE 9.2 mph - N/A   Clear
10:35 PM 34.7 °F 27.5 °F 26.4 °F 72% 29.77 in 10.0 mi SSE 9.2 mph - N/A   Clear
10:55 PM 34.7 °F 26.4 °F 26.6 °F 72% 29.77 in 10.0 mi SSE 11.5 mph - N/A   Clear
11:15 PM 34.7 °F 25.5 °F 27.0 °F 73% 29.76 in 10.0 mi SSE 13.8 mph - N/A   Clear
11:35 PM 34.9 °F 25.7 °F 27.1 °F 73% 29.74 in 10.0 mi SSE 13.8 mph - N/A   Clear
11:55 PM 35.1 °F 25.9 °F 27.5 °F 74% 29.74 in 10.0 mi SSE 13.8 mph 18.4 mph N/A   Clear